"startDT [UTC]","vpos","CH4 [ppm]","stdev(CH4) [ppm]","CO2 [ppm]","stdev(CO2) [ppm]","H2O_reported [%]","stdev(H2O_reported)","CavityPressure [torr]","CavityTemp [C]","OutletValve","CH4_dry [ppm]","CO2_dry [ppm]","DasTemp [C]","EtalonTemp [C]","WarmBoxTemp [C]","MPVPosition","T_ECpre [C]","T_EC1 [C]","T_EC2 [C]","p_inlet [hPa]","p_in [hPa]","p_out [hPa]","T_inlet [C]","RH_inlet [%]","dwpt_inlet [C]","T_vent [C]","RH_vent [%]","dwpt_vent [C]","flow_vent [l min-1]","flow_inlet [l min-1]","dwpt_sample [C]","T_room [C]"
2015-10-19 00:00:00,3.0,1.88608,0.02495,397.129,0.889,0.0684,0.1014,139.981,44.998,31496.62590,1.89007,397.452,35.818,45.068,45.000,0.00,0.09,-272.75,-272.81,-8,485,-946,21.6,9.4,-12.1,21.9,9.4,-11.8,5.73,2.10,-7.0,28.1
2015-10-19 00:01:00,3.0,1.87663,0.00033,397.428,0.034,0.0137,0.0015,140.000,44.998,31476.25150,1.87689,397.494,35.758,45.068,45.000,0.00,0.09,-272.75,-272.81,-7,484,-946,21.6,9.3,-12.3,21.9,9.4,-11.9,5.73,1.84,-7.0,28.0
2015-10-19 00:02:00,3.0,1.87636,0.00036,397.450,0.051,0.0153,0.0016,139.998,44.999,31470.57498,1.87664,397.521,35.738,45.068,45.000,0.00,0.09,-272.75,-272.80,-6,484,-946,21.6,9.2,-12.4,21.9,9.2,-12.2,5.73,1.87,-7.0,28.1
2015-10-19 00:03:00,3.0,1.87650,0.00026,397.551,0.034,0.0130,0.0020,139.999,44.999,31464.48790,1.87673,397.614,35.734,45.068,45.000,0.00,0.09,-272.75,-272.81,-8,484,-946,21.6,9.2,-12.4,21.9,9.2,-12.1,5.73,2.07,-7.0,28.0
2015-10-19 00:04:00,3.0,1.87627,0.00027,397.525,0.026,0.0102,0.0024,139.998,45.000,31461.37967,1.87647,397.574,35.747,45.068,45.000,0.00,0.09,-272.75,-272.81,-7,484,-946,21.6,9.1,-12.4,21.9,9.2,-12.1,5.73,1.72,-7.0,28.1
2015-10-19 00:05:00,3.0,1.87657,0.00036,397.563,0.040,0.0079,0.0025,139.998,45.000,31456.70733,1.87666,397.600,35.757,45.068,45.000,0.00,0.09,-272.75,-272.80,-7,484,-946,21.6,9.2,-12.4,21.9,9.3,-12.0,5.73,2.12,-7.0,28.0
2015-10-19 00:06:00,3.0,1.87684,0.00036,397.567,0.028,0.0071,0.0024,140.002,45.000,31455.52737,1.87699,397.601,35.759,45.068,45.000,0.00,0.09,-272.74,-272.81,-8,485,-946,21.7,9.2,-12.3,22.0,9.3,-12.0,5.73,1.78,-7.0,28.1
2015-10-19 00:07:00,3.0,1.87673,0.00026,397.575,0.033,0.0055,0.0022,139.999,45.000,31453.75827,1.87683,397.602,35.753,45.068,45.000,0.00,0.09,-272.75,-272.81,-7,485,-946,21.7,9.3,-12.2,22.0,9.3,-11.9,5.73,1.96,-7.0,28.1
2015-10-19 00:08:00,3.0,1.87672,0.00030,397.564,0.024,0.0043,0.0024,140.000,45.000,31454.15091,1.87681,397.585,35.750,45.068,44.999,0.00,0.09,-272.74,-272.80,-7,485,-946,21.8,9.3,-12.1,22.0,9.3,-11.9,5.73,2.01,-7.0,28.1
2015-10-19 00:09:00,3.0,1.87666,0.00030,397.597,0.028,0.0028,0.0027,139.999,45.000,31452.32386,1.87671,397.610,35.745,45.067,44.999,0.00,0.09,-272.74,-272.80,-8,485,-946,21.8,9.2,-12.2,22.0,9.3,-11.9,5.73,1.74,-7.0,28.1
2015-10-19 00:10:00,3.0,1.87644,0.00042,397.551,0.027,0.0038,0.0014,140.002,45.000,31456.57383,1.87651,397.569,35.709,45.067,44.999,0.00,0.09,-272.75,-272.81,-7,485,-946,21.9,9.2,-12.2,22.1,9.2,-12.0,5.73,2.11,-7.0,28.1
2015-10-19 00:11:00,3.0,1.87652,0.00036,397.569,0.024,0.0020,0.0018,139.999,44.999,31454.11194,1.87656,397.580,35.674,45.067,44.998,0.00,0.09,-272.75,-272.81,-7,485,-946,21.8,9.2,-12.2,22.1,9.2,-12.0,5.73,1.84,-7.0,28.1
2015-10-19 00:12:00,3.0,1.87637,0.00036,397.585,0.028,0.0028,0.0019,139.998,44.999,31454.29339,1.87642,397.597,35.618,45.067,44.999,0.00,0.09,-272.74,-272.80,-8,485,-945,21.8,9.1,-12.3,22.1,9.2,-12.0,5.73,1.83,-7.0,28.1
2015-10-19 00:13:00,3.0,1.87650,0.00041,397.568,0.031,0.0022,0.0018,140.000,44.999,31454.08340,1.87655,397.579,35.565,45.067,44.999,0.00,0.09,-272.75,-272.81,-7,486,-945,21.9,9.1,-12.2,22.1,9.2,-12.0,5.73,2.11,-7.0,28.1
2015-10-19 00:14:00,3.0,1.87659,0.00042,397.576,0.030,0.0017,0.0020,140.000,44.999,31454.74645,1.87661,397.585,35.544,45.067,44.999,0.00,0.09,-272.75,-272.82,-7,486,-945,21.9,9.1,-12.3,22.2,9.2,-12.0,5.73,1.74,-7.0,28.2
2015-10-19 00:15:00,3.0,1.87661,0.00047,397.578,0.032,0.0025,0.0023,139.999,44.999,31453.73526,1.87665,397.588,35.506,45.068,44.999,0.00,0.09,-272.75,-272.80,-8,486,-945,21.9,9.0,-12.4,22.1,9.1,-12.2,5.73,1.98,-7.0,28.2
2015-10-19 00:16:00,3.0,1.87664,0.00032,397.591,0.028,0.0022,0.0018,139.999,44.999,31453.87573,1.87668,397.602,35.504,45.068,45.000,0.00,0.09,-272.74,-272.80,-7,487,-945,22.0,8.9,-12.5,22.2,9.0,-12.2,5.73,2.00,-7.0,28.2
2015-10-19 00:17:00,3.0,1.87672,0.00035,397.603,0.039,0.0016,0.0016,140.003,45.000,31457.54631,1.87671,397.611,35.529,45.068,45.000,0.00,0.09,-272.76,-272.81,-7,487,-945,22.0,9.0,-12.3,22.2,9.1,-12.0,5.73,1.73,-7.0,28.2
2015-10-19 00:18:00,3.0,1.87655,0.00037,397.576,0.022,0.0013,0.0022,140.003,45.000,31460.58078,1.87659,397.582,35.560,45.069,45.000,0.00,0.09,-272.75,-272.81,-8,487,-945,22.0,9.2,-12.0,22.2,9.2,-11.8,5.73,2.12,-7.0,28.3
2015-10-19 00:19:00,3.0,1.87672,0.00043,397.591,0.029,0.0012,0.0012,139.999,45.000,31460.35621,1.87675,397.597,35.593,45.069,45.001,0.00,0.09,-272.74,-272.80,-7,487,-945,22.1,9.1,-12.1,22.3,9.2,-11.8,5.73,1.79,-7.0,28.2
2015-10-19 00:20:00,0.0,1.93392,0.02209,395.670,0.946,0.2476,0.1054,140.011,45.001,31692.62034,1.93645,396.862,35.650,45.069,45.001,0.00,0.09,-272.75,-272.80,-9,522,-945,22.2,9.0,-12.2,22.3,9.2,-11.9,5.73,1.98,-7.0,28.3
2015-10-19 00:21:00,0.0,1.94464,0.00212,395.410,0.263,0.3074,0.0021,140.001,45.001,31721.52264,1.95041,396.875,35.717,45.069,45.001,0.00,0.09,-272.75,-272.81,-9,523,-945,22.2,8.9,-12.3,22.3,9.1,-12.0,5.73,2.14,-7.0,28.3
2015-10-19 00:22:00,0.0,1.93885,0.00347,395.202,0.275,0.3029,0.0026,139.999,45.001,31729.02840,1.94498,396.666,35.765,45.069,45.001,0.00,0.09,-272.74,-272.80,-10,523,-945,22.2,8.8,-12.5,22.4,8.9,-12.2,5.73,1.81,-7.0,28.3
2015-10-19 00:23:00,0.0,1.93663,0.00077,394.911,0.089,0.3131,0.0041,140.002,45.001,31736.67318,1.94253,396.404,35.828,45.069,45.001,0.00,0.09,-272.74,-272.80,-8,524,-945,22.3,9.0,-12.1,22.4,9.0,-12.0,5.73,1.89,-7.0,28.3
2015-10-19 00:24:00,0.0,1.93878,0.00065,395.153,0.039,0.3235,0.0028,140.000,45.001,31743.15993,1.94500,396.704,35.903,45.069,45.001,0.00,0.09,-272.75,-272.81,-8,524,-945,22.2,9.2,-11.8,22.4,9.3,-11.6,5.73,2.14,-7.0,28.3
2015-10-19 00:25:00,0.0,1.94143,0.00132,395.310,0.109,0.3267,0.0020,140.001,45.001,31748.32986,1.94763,396.872,35.945,45.069,45.000,0.00,0.09,-272.74,-272.81,-10,524,-946,22.3,9.3,-11.8,22.5,9.4,-11.5,5.73,1.81,-7.0,28.4
2015-10-19 00:26:00,0.0,1.94075,0.00149,395.324,0.139,0.3317,0.0017,139.999,45.001,31752.55723,1.94727,396.921,35.998,45.069,45.000,0.00,0.09,-272.74,-272.80,-9,524,-946,22.3,9.4,-11.5,22.4,9.5,-11.3,5.73,1.90,-7.0,28.4
2015-10-19 00:27:00,0.0,1.93715,0.00220,395.028,0.246,0.3314,0.0016,140.002,45.001,31758.27320,1.94344,396.611,36.053,45.068,45.000,0.00,0.09,-272.75,-272.81,-8,524,-946,22.3,9.4,-11.5,22.4,9.6,-11.3,5.73,2.13,-7.0,28.4
2015-10-19 00:28:00,0.0,1.94056,0.00042,395.418,0.044,0.3324,0.0021,139.999,45.001,31760.25097,1.94696,397.014,36.113,45.068,45.000,0.00,0.09,-272.74,-272.81,-9,524,-946,22.3,9.4,-11.5,22.5,9.5,-11.2,5.73,1.77,-7.0,28.5
2015-10-19 00:29:00,0.0,1.94129,0.00066,395.467,0.102,0.3317,0.0024,140.002,45.001,31764.56829,1.94762,397.053,36.143,45.068,45.000,0.00,0.09,-272.75,-272.80,-10,524,-946,22.3,9.4,-11.5,22.5,9.5,-11.3,5.73,1.96,-7.0,28.5
2015-10-19 00:30:00,0.0,1.94165,0.00052,395.572,0.065,0.3246,0.0028,139.999,45.000,31768.26655,1.94796,397.135,36.176,45.068,45.000,0.00,0.09,-272.75,-272.80,-9,525,-946,22.3,9.2,-11.8,22.5,9.4,-11.5,5.73,2.09,-7.0,28.4
2015-10-19 00:31:00,0.0,1.94086,0.00073,395.534,0.066,0.3189,0.0022,139.997,45.000,31769.32624,1.94706,397.065,36.168,45.068,44.999,0.00,0.09,-272.75,-272.81,-8,525,-946,22.3,9.0,-12.0,22.5,9.2,-11.7,5.73,1.77,-7.0,28.4
2015-10-19 00:32:00,0.0,1.94131,0.00117,395.447,0.096,0.3175,0.0018,140.000,45.000,31771.16179,1.94732,396.968,36.129,45.068,44.999,0.00,0.09,-272.75,-272.80,-10,525,-946,22.3,9.0,-12.1,22.5,9.1,-11.8,5.73,1.93,-7.0,28.5
2015-10-19 00:33:00,0.0,1.94151,0.00080,395.472,0.092,0.3198,0.0019,140.001,45.000,31771.82174,1.94774,397.010,36.102,45.067,44.999,0.00,0.09,-272.75,-272.80,-10,525,-946,22.3,9.1,-12.0,22.5,9.2,-11.8,5.73,2.12,-7.0,28.4
2015-10-19 00:34:00,0.0,1.93991,0.00091,395.232,0.081,0.3246,0.0024,139.999,45.000,31772.01568,1.94621,396.790,36.064,45.068,44.999,0.00,0.09,-272.74,-272.81,-9,525,-946,22.2,9.2,-11.9,22.5,9.3,-11.6,5.73,1.84,-7.0,28.5
2015-10-19 00:35:00,0.0,1.94037,0.00087,395.339,0.118,0.3288,0.0016,139.999,44.999,31773.92033,1.94663,396.911,35.994,45.068,44.999,0.00,0.09,-272.74,-272.80,-8,525,-946,22.2,9.3,-11.7,22.5,9.4,-11.5,5.73,1.82,-7.0,28.4
2015-10-19 00:36:00,0.0,1.94120,0.00043,395.480,0.026,0.3286,0.0016,140.000,44.999,31773.10916,1.94755,397.060,35.932,45.067,44.999,0.00,0.09,-272.74,-272.80,-9,525,-945,22.2,9.4,-11.7,22.4,9.4,-11.4,5.73,2.09,-7.0,28.4
2015-10-19 00:37:00,0.0,1.94234,0.00054,395.529,0.062,0.3265,0.0021,140.000,44.999,31772.26638,1.94861,397.095,35.880,45.068,45.000,0.00,0.09,-272.75,-272.81,-10,525,-945,22.2,9.3,-11.8,22.4,9.4,-11.5,5.73,2.01,-7.0,28.4
2015-10-19 00:38:00,0.0,1.94188,0.00031,395.502,0.038,0.3287,0.0018,140.000,44.999,31770.02374,1.94823,397.080,35.873,45.068,45.000,0.00,0.09,-272.74,-272.81,-9,525,-945,22.1,9.4,-11.7,22.4,9.4,-11.5,5.73,1.76,-7.0,28.3
2015-10-19 00:39:00,0.0,1.94212,0.00040,395.522,0.035,0.3319,0.0019,140.000,44.999,31770.29179,1.94850,397.113,35.853,45.068,45.000,0.00,0.09,-272.74,-272.80,-8,525,-945,22.1,9.5,-11.6,22.4,9.5,-11.4,5.73,1.97,-7.0,28.3
2015-10-19 00:40:00,0.0,1.94290,0.00033,395.495,0.075,0.3280,0.0017,139.998,44.999,31768.99036,1.94922,397.071,35.850,45.068,45.000,0.00,0.09,-272.75,-272.81,-9,525,-945,22.1,9.4,-11.7,22.4,9.4,-11.5,5.73,2.11,-7.0,28.4
2015-10-19 00:41:00,0.0,1.94384,0.00081,395.342,0.084,0.3270,0.0019,140.000,44.999,31769.28857,1.95006,396.914,35.876,45.068,45.000,0.00,0.09,-272.74,-272.81,-10,525,-945,22.1,9.3,-11.8,22.4,9.4,-11.5,5.73,1.78,-7.0,28.4
2015-10-19 00:42:00,0.0,1.94745,0.00118,395.286,0.044,0.3267,0.0014,139.998,45.000,31768.32371,1.95363,396.853,35.928,45.069,45.001,0.00,0.09,-272.75,-272.80,-9,525,-945,22.1,9.3,-11.8,22.4,9.4,-11.5,5.73,1.94,-7.0,28.4
2015-10-19 00:43:00,0.0,1.94997,0.00157,395.159,0.056,0.3253,0.0017,139.998,45.000,31767.94474,1.95623,396.721,35.959,45.069,45.001,0.00,0.09,-272.74,-272.80,-8,525,-945,22.1,9.3,-11.8,22.4,9.4,-11.5,5.73,2.11,-7.0,28.3
2015-10-19 00:44:00,0.0,1.94541,0.00280,395.089,0.079,0.3270,0.0015,139.999,45.000,31769.98122,1.95189,396.658,36.005,45.069,45.001,0.00,0.09,-272.75,-272.81,-9,525,-945,22.1,9.3,-11.8,22.4,9.4,-11.6,5.73,1.78,-6.9,28.3
2015-10-19 00:45:00,0.0,1.94450,0.00099,395.138,0.045,0.3284,0.0021,140.000,45.001,31770.52937,1.95088,396.711,36.057,45.069,45.001,0.00,0.09,-272.75,-272.81,-10,525,-945,22.1,9.4,-11.8,22.4,9.4,-11.5,5.73,1.95,-7.0,28.3
2015-10-19 00:46:00,0.0,1.94343,0.00121,395.233,0.060,0.3299,0.0015,140.002,45.001,31773.63128,1.94980,396.814,36.073,45.069,45.001,0.00,0.09,-272.74,-272.80,-9,525,-946,22.1,9.5,-11.7,22.4,9.5,-11.4,5.73,2.10,-7.0,28.4
2015-10-19 00:47:00,0.0,1.94221,0.00097,395.236,0.059,0.3311,0.0022,140.000,45.001,31774.62987,1.94862,396.824,36.109,45.069,45.000,0.00,0.09,-272.74,-272.81,-9,525,-946,22.1,9.5,-11.6,22.4,9.5,-11.4,5.73,1.76,-7.0,28.4
2015-10-19 00:48:00,0.0,1.94541,0.00129,395.379,0.109,0.3318,0.0017,140.000,45.001,31776.05725,1.95172,396.973,36.123,45.068,45.000,0.00,0.09,-272.75,-272.81,-10,525,-946,22.1,9.5,-11.6,22.4,9.5,-11.3,5.73,1.98,-7.0,28.3
2015-10-19 00:49:00,0.0,1.94680,0.00083,395.282,0.029,0.3329,0.0012,140.003,45.000,31777.29825,1.95319,396.877,36.128,45.068,45.000,0.00,0.09,-272.74,-272.80,-9,525,-946,22.1,9.5,-11.6,22.4,9.5,-11.4,5.73,2.09,-7.0,28.4
2015-10-19 00:50:00,0.0,1.94540,0.00186,395.330,0.037,0.3358,0.0015,140.001,45.000,31777.45986,1.95203,396.941,36.125,45.068,44.999,0.00,0.09,-272.74,-272.80,-8,525,-945,22.1,9.6,-11.5,22.4,9.6,-11.3,5.73,1.77,-7.0,28.3
2015-10-19 00:51:00,0.0,1.94520,0.00248,395.436,0.071,0.3388,0.0021,139.999,45.000,31775.47111,1.95164,397.059,36.118,45.067,44.999,0.00,0.09,-272.75,-272.81,-9,525,-945,22.1,9.7,-11.4,22.4,9.7,-11.2,5.73,1.95,-7.0,28.4
2015-10-19 00:52:00,0.0,1.94933,0.00161,395.418,0.058,0.3368,0.0021,140.000,45.000,31774.59601,1.95589,397.038,36.072,45.067,44.999,0.00,0.09,-272.75,-272.80,-10,525,-945,22.1,9.6,-11.5,22.4,9.7,-11.2,5.73,2.11,-7.0,28.3
2015-10-19 00:53:00,0.0,1.94443,0.00108,395.348,0.029,0.3388,0.0015,140.000,45.000,31775.53339,1.95108,396.974,36.063,45.067,44.999,0.00,0.09,-272.74,-272.80,-9,525,-945,22.1,9.7,-11.4,22.4,9.7,-11.2,5.73,1.82,-7.0,28.3
2015-10-19 00:54:00,0.0,1.94427,0.00266,395.413,0.068,0.3406,0.0025,140.000,44.999,31775.40082,1.95089,397.047,36.034,45.067,44.999,0.00,0.09,-272.75,-272.81,-8,525,-945,22.0,9.7,-11.3,22.3,9.7,-11.1,5.73,1.85,-7.0,28.3
2015-10-19 00:55:00,0.0,1.94169,0.00113,395.378,0.043,0.3448,0.0019,139.999,44.999,31772.36661,1.94833,397.034,35.981,45.067,44.999,0.00,0.09,-272.76,-272.81,-9,525,-945,22.0,9.9,-11.2,22.3,9.8,-11.0,5.73,2.11,-7.0,28.3
2015-10-19 00:56:00,0.0,1.94229,0.00074,395.414,0.025,0.3410,0.0019,139.999,44.999,31772.66388,1.94893,397.052,35.924,45.067,44.999,0.00,0.09,-272.74,-272.81,-10,525,-945,22.0,9.8,-11.3,22.3,9.8,-11.0,5.73,1.97,-7.0,28.4
2015-10-19 00:57:00,0.0,1.94114,0.00030,395.372,0.023,0.3445,0.0021,139.998,44.999,31771.01332,1.94775,397.025,35.852,45.068,44.999,0.00,0.09,-272.75,-272.81,-9,525,-945,21.9,9.9,-11.3,22.3,9.9,-11.0,5.73,1.77,-7.0,28.3
2015-10-19 00:58:00,0.0,1.94184,0.00043,395.411,0.035,0.3444,0.0015,140.001,44.999,31769.77122,1.94847,397.064,35.751,45.068,45.000,0.00,0.09,-272.76,-272.80,-9,525,-945,21.8,9.9,-11.3,22.2,9.9,-11.0,5.73,1.95,-7.0,28.2
2015-10-19 00:59:00,0.0,1.94215,0.00092,395.481,0.036,0.3418,0.0023,139.999,44.999,31766.07341,1.94878,397.121,35.654,45.068,45.000,0.00,0.09,-272.75,-272.80,-8,524,-945,21.8,9.9,-11.4,22.2,9.9,-11.0,5.73,2.11,-7.0,28.2
2015-10-19 01:00:00,0.0,1.94163,0.00031,395.506,0.045,0.3443,0.0018,139.999,44.999,31764.10252,1.94825,397.159,35.576,45.068,45.000,0.00,0.09,-272.74,-272.81,-9,524,-945,21.8,9.9,-11.3,22.1,9.9,-11.0,5.73,1.93,-7.0,28.1
2015-10-19 01:01:00,0.0,1.94182,0.00046,395.599,0.053,0.3457,0.0019,140.000,44.999,31761.41164,1.94848,397.258,35.503,45.068,45.000,0.00,0.09,-272.75,-272.81,-9,524,-945,21.7,10.0,-11.2,22.1,10.0,-11.0,5.73,1.78,-7.0,28.1
2015-10-19 01:02:00,0.0,1.94212,0.00055,395.648,0.044,0.3483,0.0016,139.998,44.999,31758.49014,1.94877,397.322,35.458,45.069,45.000,0.00,0.09,-272.75,-272.80,-9,524,-945,21.7,10.1,-11.1,22.1,10.0,-10.9,5.73,2.00,-7.0,28.1
2015-10-19 01:03:00,0.0,1.94268,0.00039,395.639,0.031,0.3470,0.0017,139.997,44.999,31757.57976,1.94938,397.305,35.440,45.069,45.001,0.00,0.09,-272.74,-272.81,-8,524,-945,21.7,10.0,-11.2,22.1,10.0,-10.9,5.73,2.10,-7.0,28.0
2015-10-19 01:04:00,0.0,1.94268,0.00051,395.635,0.030,0.3468,0.0014,140.001,45.000,31759.66284,1.94939,397.300,35.475,45.069,45.001,0.00,0.09,-272.74,-272.81,-8,524,-945,21.7,10.0,-11.2,22.1,10.0,-10.9,5.73,1.81,-7.0,28.0
2015-10-19 01:05:00,0.0,1.94359,0.00036,395.671,0.033,0.3456,0.0023,139.999,45.000,31755.36112,1.95022,397.331,35.507,45.069,45.001,0.00,0.09,-272.75,-272.81,-9,524,-945,21.7,10.1,-11.1,22.1,10.0,-10.9,5.73,1.89,-7.0,28.0
2015-10-19 01:06:00,0.0,1.94395,0.00038,395.727,0.031,0.3461,0.0021,139.998,45.000,31754.07191,1.95063,397.391,35.555,45.069,45.001,0.00,0.09,-272.75,-272.80,-9,524,-945,21.7,10.0,-11.2,22.1,10.0,-11.0,5.73,2.14,-7.0,28.1
2015-10-19 01:07:00,0.0,1.94454,0.00050,395.769,0.053,0.3460,0.0017,140.001,45.001,31754.31124,1.95121,397.430,35.608,45.069,45.001,0.00,0.09,-272.74,-272.81,-8,524,-945,21.7,10.0,-11.2,22.1,10.0,-10.9,5.73,1.83,-7.0,28.0
2015-10-19 01:08:00,0.0,1.94498,0.00047,395.768,0.048,0.3457,0.0021,140.001,45.001,31754.89148,1.95166,397.431,35.655,45.069,45.001,0.00,0.09,-272.75,-272.81,-8,523,-945,21.7,10.0,-11.2,22.1,10.0,-10.9,5.73,1.87,-7.0,28.0
2015-10-19 01:09:00,0.0,1.94691,0.00231,395.732,0.031,0.3414,0.0025,139.998,45.001,31755.47138,1.95340,397.371,35.722,45.069,45.001,0.00,0.09,-272.75,-272.80,-10,524,-945,21.7,9.9,-11.4,22.1,10.0,-11.0,5.73,2.14,-7.0,28.0
2015-10-19 01:10:00,0.0,1.94733,0.00250,395.662,0.090,0.3352,0.0018,139.997,45.001,31756.72918,1.95387,397.276,35.773,45.069,45.000,0.00,0.09,-272.74,-272.80,-9,524,-945,21.7,9.7,-11.6,22.1,9.8,-11.2,5.73,1.84,-7.0,28.1
2015-10-19 01:11:00,0.0,1.95785,0.00615,395.824,0.118,0.3310,0.0027,139.999,45.001,31759.31237,1.96372,397.409,35.827,45.069,45.001,0.00,0.09,-272.75,-272.81,-8,524,-945,21.7,9.6,-11.7,22.1,9.7,-11.3,5.73,1.87,-7.0,28.1
2015-10-19 01:12:00,0.0,1.94776,0.00499,395.724,0.101,0.3312,0.0032,140.000,45.001,31760.47680,1.95480,397.316,35.892,45.069,45.000,0.00,0.09,-272.75,-272.81,-9,524,-945,21.7,9.6,-11.8,22.1,9.6,-11.4,5.73,2.14,-7.0,28.1
2015-10-19 01:13:00,0.0,1.94666,0.00284,395.721,0.060,0.3383,0.0019,139.998,45.001,31758.96801,1.95279,397.347,35.952,45.069,45.001,0.00,0.09,-272.74,-272.80,-10,524,-945,21.8,9.8,-11.5,22.1,9.8,-11.2,5.73,1.81,-7.0,28.1
2015-10-19 01:14:00,0.0,1.96824,0.00330,395.963,0.066,0.3317,0.0031,140.003,45.001,31757.95535,1.97433,397.555,36.003,45.069,45.000,0.00,0.09,-272.75,-272.80,-9,524,-945,21.8,9.6,-11.7,22.1,9.7,-11.3,5.73,1.90,-7.0,28.1
2015-10-19 01:15:00,0.0,1.96765,0.00174,395.940,0.038,0.3271,0.0015,139.996,45.001,31758.77560,1.97418,397.514,36.052,45.068,45.000,0.00,0.09,-272.75,-272.81,-8,524,-945,21.8,9.5,-11.8,22.1,9.6,-11.5,5.73,2.13,-7.0,28.2
2015-10-19 01:16:00,0.0,1.96594,0.00135,395.866,0.041,0.3259,0.0015,140.000,45.001,31763.48224,1.97237,397.434,36.048,45.068,44.999,0.00,0.09,-272.74,-272.81,-10,524,-945,21.7,9.4,-11.9,22.1,9.5,-11.6,5.73,1.82,-7.0,28.1
2015-10-19 01:17:00,0.0,1.96134,0.00286,395.810,0.045,0.3272,0.0020,139.999,45.000,31763.17739,1.96792,397.381,36.022,45.067,44.999,0.00,0.09,-272.75,-272.81,-9,524,-945,21.7,9.5,-11.9,22.1,9.5,-11.6,5.73,1.87,-7.0,28.1
2015-10-19 01:18:00,0.0,1.95839,0.00229,395.753,0.031,0.3309,0.0032,139.998,45.000,31764.65890,1.96489,397.344,36.005,45.067,44.999,0.00,0.09,-272.75,-272.81,-8,524,-945,21.7,9.6,-11.7,22.0,9.6,-11.5,5.73,2.13,-7.0,28.0
2015-10-19 01:19:00,0.0,1.95578,0.00151,395.693,0.025,0.3363,0.0016,139.999,45.000,31763.57321,1.96227,397.309,36.000,45.067,44.999,0.00,0.09,-272.74,-272.81,-8,523,-945,21.7,9.7,-11.6,22.1,9.8,-11.3,5.73,1.89,-7.0,28.1
2015-10-19 01:20:00,0.0,1.95621,0.00093,395.673,0.025,0.3388,0.0017,140.001,44.999,31762.48132,1.96281,397.301,35.993,45.067,44.999,0.00,0.09,-272.74,-272.80,-9,524,-945,21.7,9.8,-11.4,22.0,9.9,-11.2,5.73,1.80,-7.0,28.1
2015-10-19 01:21:00,0.0,1.95682,0.00082,395.659,0.030,0.3401,0.0015,139.998,44.999,31761.92939,1.96341,397.292,35.991,45.067,44.999,0.00,0.09,-272.75,-272.81,-9,524,-945,21.7,9.9,-11.4,22.0,9.9,-11.2,5.73,2.11,-7.0,28.0
2015-10-19 01:22:00,0.0,1.95433,0.00148,395.641,0.032,0.3443,0.0022,140.001,44.999,31761.34519,1.96105,397.294,35.970,45.067,44.999,0.00,0.09,-272.75,-272.81,-8,524,-945,21.7,10.0,-11.3,22.1,10.0,-11.0,5.73,1.97,-7.0,28.0
2015-10-19 01:23:00,0.0,1.95622,0.00244,395.714,0.056,0.3411,0.0031,140.001,44.999,31761.64712,1.96275,397.352,35.935,45.067,44.999,0.00,0.09,-272.74,-272.80,-8,523,-945,21.6,9.9,-11.4,22.0,10.0,-11.0,5.73,1.77,-7.0,28.0
2015-10-19 01:24:00,0.0,1.95369,0.00254,395.697,0.064,0.3377,0.0019,139.998,45.000,31759.38527,1.96049,397.322,35.933,45.068,45.000,0.00,0.09,-272.75,-272.80,-9,523,-945,21.7,9.8,-11.5,22.1,9.9,-11.2,5.73,2.06,-7.0,28.0
2015-10-19 01:25:00,0.0,1.95183,0.00051,395.605,0.029,0.3388,0.0021,139.998,45.000,31760.42431,1.95838,397.232,35.939,45.068,45.000,0.00,0.09,-272.75,-272.81,-9,523,-945,21.7,9.8,-11.5,22.0,9.8,-11.2,5.73,2.04,-7.0,28.1
2015-10-19 01:26:00,0.0,1.95118,0.00105,395.614,0.022,0.3390,0.0013,139.999,45.000,31759.74097,1.95771,397.242,35.966,45.069,45.001,0.00,0.09,-272.74,-272.80,-8,523,-945,21.7,9.8,-11.4,22.0,9.9,-11.2,5.73,1.76,-7.0,28.0
2015-10-19 01:27:00,0.0,1.95237,0.00078,395.606,0.029,0.3390,0.0019,140.000,45.000,31760.81978,1.95896,397.235,36.008,45.069,45.001,0.00,0.09,-272.75,-272.80,-9,523,-945,21.7,9.8,-11.4,22.0,9.9,-11.1,5.73,2.05,-7.0,28.0
2015-10-19 01:28:00,0.0,1.95117,0.00194,395.599,0.045,0.3384,0.0023,139.999,45.001,31761.05025,1.95785,397.226,36.060,45.069,45.001,0.00,0.09,-272.75,-272.81,-10,523,-945,21.7,9.8,-11.5,22.0,9.9,-11.1,5.73,2.03,-7.0,28.0
2015-10-19 01:29:00,0.0,1.94862,0.00059,395.582,0.029,0.3335,0.0013,139.999,45.001,31762.63002,1.95509,397.183,36.069,45.069,45.001,0.00,0.09,-272.75,-272.81,-9,524,-945,21.8,9.7,-11.6,22.1,9.7,-11.3,5.73,1.76,-7.0,28.1
2015-10-19 01:30:00,0.0,1.94874,0.00036,395.622,0.032,0.3339,0.0015,140.002,45.001,31763.77772,1.95520,397.224,36.119,45.069,45.001,0.00,0.09,-272.75,-272.80,-8,524,-945,21.7,9.7,-11.6,22.0,9.7,-11.3,5.73,2.06,-7.0,28.1
2015-10-19 01:31:00,0.0,1.94919,0.00060,395.577,0.037,0.3358,0.0016,140.002,45.001,31764.71634,1.95569,397.191,36.121,45.069,45.000,0.00,0.09,-272.75,-272.81,-9,524,-945,21.7,9.7,-11.6,22.1,9.8,-11.3,5.73,2.02,-7.0,28.1
2015-10-19 01:32:00,0.0,1.94467,0.00592,395.381,0.283,0.3400,0.0066,140.000,45.001,31765.71122,1.95164,397.022,36.124,45.068,45.000,0.00,0.09,-272.74,-272.81,-10,524,-945,21.8,9.8,-11.4,22.1,9.8,-11.3,5.73,1.75,-7.0,28.2
2015-10-19 01:33:00,0.0,1.93760,0.00109,394.971,0.048,0.3573,0.0019,139.999,45.000,31766.78196,1.94449,396.684,36.126,45.068,45.000,0.00,0.09,-272.74,-272.80,-9,524,-945,21.8,10.3,-10.8,22.1,10.2,-10.7,5.73,2.06,-7.0,28.2
2015-10-19 01:34:00,0.0,1.93628,0.00114,394.949,0.060,0.3615,0.0021,139.999,45.000,31766.74007,1.94321,396.683,36.164,45.068,45.000,0.00,0.09,-272.75,-272.81,-8,524,-945,21.8,10.5,-10.6,22.1,10.4,-10.4,5.73,2.02,-7.0,28.2
2015-10-19 01:35:00,0.0,1.93947,0.00210,395.092,0.101,0.3580,0.0031,140.001,45.000,31769.32431,1.94627,396.808,36.189,45.068,45.000,0.00,0.09,-272.75,-272.81,-10,524,-945,21.8,10.4,-10.7,22.1,10.4,-10.5,5.73,1.75,-7.0,28.2
2015-10-19 01:36:00,0.0,1.94001,0.00145,395.134,0.052,0.3572,0.0027,140.000,45.000,31767.93864,1.94682,396.846,36.192,45.068,45.000,0.00,0.09,-272.75,-272.80,-9,524,-946,21.8,10.3,-10.9,22.1,10.4,-10.5,5.73,2.07,-7.0,28.2
2015-10-19 01:37:00,0.0,1.94087,0.00170,395.199,0.053,0.3548,0.0019,139.998,45.000,31770.10745,1.94766,396.900,36.190,45.068,45.000,0.00,0.09,-272.74,-272.80,-8,524,-945,21.8,10.2,-10.9,22.1,10.3,-10.5,5.73,2.03,-7.0,28.1
2015-10-19 01:38:00,0.0,1.94195,0.00198,395.308,0.044,0.3512,0.0022,139.997,45.000,31767.56335,1.94887,396.995,36.176,45.068,45.000,0.00,0.09,-272.75,-272.81,-9,523,-946,21.7,10.2,-11.0,22.0,10.2,-10.7,5.73,1.76,-7.0,28.1
2015-10-19 01:39:00,0.0,1.94133,0.00086,395.372,0.068,0.3559,0.0014,139.998,45.000,31766.56684,1.94820,397.077,36.127,45.068,45.000,0.00,0.09,-272.75,-272.81,-10,524,-945,21.7,10.3,-10.8,22.0,10.3,-10.6,5.73,2.01,-7.0,28.2
2015-10-19 01:40:00,0.0,1.94013,0.00039,395.383,0.054,0.3583,0.0016,140.001,45.000,31765.42529,1.94700,397.105,36.081,45.068,44.999,0.00,0.09,-272.74,-272.80,-9,524,-945,21.7,10.4,-10.8,22.0,10.4,-10.5,5.73,2.09,-7.0,28.1
2015-10-19 01:41:00,0.0,1.94051,0.00041,395.335,0.036,0.3584,0.0019,139.999,44.999,31765.30569,1.94744,397.056,36.041,45.067,44.999,0.00,0.09,-272.74,-272.81,-8,524,-945,21.7,10.4,-10.8,22.0,10.4,-10.5,5.73,1.81,-7.0,28.0
2015-10-19 01:42:00,0.0,1.94082,0.00103,395.435,0.058,0.3579,0.0012,139.999,44.999,31764.02355,1.94765,397.155,36.001,45.068,44.999,0.00,0.09,-272.75,-272.80,-8,523,-945,21.7,10.4,-10.8,22.1,10.4,-10.5,5.73,1.87,-7.0,28.0
2015-10-19 01:43:00,0.0,1.94021,0.00164,395.398,0.027,0.3565,0.0017,139.999,44.999,31765.24906,1.94720,397.109,35.965,45.068,45.000,0.00,0.09,-272.75,-272.80,-9,523,-945,21.7,10.4,-10.8,22.0,10.4,-10.5,5.73,2.12,-7.0,28.0
2015-10-19 01:44:00,0.0,1.94059,0.00108,395.409,0.037,0.3592,0.0021,139.997,44.999,31763.07843,1.94746,397.134,35.920,45.068,44.999,0.00,0.09,-272.75,-272.81,-9,524,-945,21.7,10.5,-10.7,22.0,10.5,-10.4,5.73,1.94,-7.0,28.0
2015-10-19 01:45:00,0.0,1.94526,0.00250,395.660,0.144,0.3543,0.0023,140.001,44.999,31762.98809,1.95192,397.357,35.872,45.068,45.000,0.00,0.09,-272.75,-272.81,-9,524,-945,21.6,10.3,-10.9,22.0,10.4,-10.6,5.73,1.77,-7.0,28.1